Location: Sawyer Lake
(45.2517°N, 88.7550°W)
Time: 20:52:44
(UTC-06:00)

Daily predictions for brighter satellites

Satellite Brightness Start Highest point End
(mag) Time Altitude Azimuth Time Altitude Azimuth Time Altitude Azimuth
Cosmos 2237 Rocket 4.4 17:11:48 10° W 17:15:32 18° NW 17:19:18 10° N
SPOT 3 Rocket 4.4 17:16:40 10° ESE 17:20:59 28° ENE 17:25:18 10° N
COSMO-SKYMED 1 3.5 17:20:43 10° NE 17:24:31 29° E 17:28:17 10° SSE
USA 215 4.2 17:18:46 10° NE 17:24:35 36° NNW 17:30:25 10° WNW
ALOS 2.9 17:20:48 10° SE 17:24:57 33° ENE 17:29:07 10° N
Cosmos 1674 2.6 17:21:52 10° S 17:25:37 89° E 17:29:23 10° N
Cosmos 1295 Rocket 4.5 17:19:36 10° N 17:25:41 66° E 17:31:46 10° SSE
Meteor 2-14 Rocket 4.4 17:21:53 10° N 17:27:59 66° E 17:34:01 10° SSE
AQUARIUS 4.5 17:29:06 10° S 17:33:35 72° WSW 17:38:06 10° NNW
BREEZE-M R/B 2.3 17:32:05 10° WSW 17:34:56 63° SSE 17:36:24 15° ENE
Cosmos 2263 4.2 17:30:03 10° NNW 17:35:52 85° ENE 17:41:37 10° SSE
NOSS 2-1 (C) 3.5 17:34:39 10° SW 17:38:19 69° NW 17:42:31 10° NE
NOSS 2-1 (D) 3.5 17:35:20 10° SW 17:38:59 67° NW 17:43:10 10° NE
Cosmos 1076 Rocket 3.8 17:36:35 10° SSE 17:40:46 47° E 17:44:59 10° NNE
Cosmos 1992 Rocket 4.0 17:36:38 10° SSW 17:41:51 88° ESE 17:47:06 10° NNE
USA 116 4.0 17:38:36 10° NNE 17:42:46 73° ESE 17:47:28 10° S
Cosmos 2369 Rocket 2.8 17:38:10 10° NNW 17:43:45 63° WSW 17:49:21 10° S
Cosmos 1626 3.5 17:41:58 10° SE 17:44:42 20° E 17:46:24 15° NE
ERBS 4.5 17:43:53 10° NNW 17:45:36 13° NNE 17:46:50 11° NE
Cosmos 2366 rocket 4.2 17:39:36 10° N 17:45:42 50° ENE 17:51:40 10° SSE
GEOS 3 Rocket 4.3 17:42:53 10° ESE 17:47:40 35° NE 17:52:32 10° NNW
Cosmos 1300 2.6 17:45:59 10° N 17:49:47 62° E 17:53:34 10° SSE
CZ-4 R/B 2.0 17:46:13 10° S 17:50:24 65° WSW 17:54:39 10° NNW
Geosat 4.3 17:45:31 10° NNE 17:50:33 70° WNW 17:55:32 10° SW
SL-14 R/B 3.3 17:48:35 10° S 17:52:30 57° E 17:56:23 10° NNE
Cosmos 1656 Rocket 3.8 17:48:26 10° NNW 17:53:44 48° ENE 17:59:04 10° SE
Cosmos 2098 Rocket 4.3 17:50:35 10° NNE 17:55:03 32° ENE 18:00:27 10° SE
BREEZE-M DEB (TANK) 2.5 17:51:10 10° SW 17:56:25 53° SSE 17:57:55 23° E
Cosmos 968 Rocket 3.5 17:51:37 10° NNW 17:56:49 85° WSW 18:01:56 10° SSE
ATLAS 2AS CENTAUR R/B 3.7 17:50:40 10° NW 17:58:24 57° WSW 18:05:30 10° SSE
Cosmos 1943 Rocket 2.5 17:53:16 10° NNW 17:58:51 70° WSW 18:04:22 10° SSE
ERS-2 2.5 17:58:42 10° SE 18:02:10 41° ENE 18:05:40 10° N
CZ-2C R/B 3.9 17:58:16 10° NNE 18:03:02 80° WNW 18:07:41 10° SSW
NOAA 12 4.0 17:58:13 10° SSE 18:03:24 68° ENE 18:08:38 10° N
Cosmos 1766 Rocket 3.7 18:00:58 10° SSE 18:05:07 48° E 18:09:18 10° NNE
Okean 3 Rocket 3.6 18:01:49 10° S 18:06:21 88° W 18:10:55 10° N
NOSS 2-1 (E) 4.3 18:03:48 10° WSW 18:07:23 42° NW 18:11:06 13° NNE
MTI 3.6 18:05:28 11° NNE 18:08:32 73° ESE 18:11:44 10° S
Cosmos 44 3.6 18:07:06 10° S 18:11:03 36° ESE 18:12:38 27° ENE
SKYMED 2 3.5 18:08:22 10° NNE 18:12:44 89° WNW 18:17:05 10° SSW
TSX-5 3.8 18:09:48 10° S 18:12:49 41° ESE 18:13:35 34° ENE
Meteor 1-27 4.4 18:09:56 10° N 18:15:27 49° ENE 18:21:01 10° SSE
Cosmos 1315 Rocket 2.6 18:12:08 10° S 18:16:03 70° E 18:19:42 12° NNE
Cosmos 1346 Rocket 2.9 18:13:46 10° N 18:17:34 46° ENE 18:21:19 10° SSE
Meteor 1-11 4.3 18:15:17 10° SSE 18:20:38 50° E 18:26:05 10° NNE
NOSS 3-4 (A) 3.7 18:14:12 10° NW 18:21:11 75° NE 18:28:43 10° SE
NOSS 3-4 (C) 3.7 18:14:18 10° NW 18:21:18 74° NE 18:28:49 10° SE
Cosmos 864 Rocket 4.5 18:15:19 10° N 18:21:42 87° E 18:28:01 10° S
SL-24 R/B - RUBIN 2 3.4 18:17:38 10° NW 18:22:15 81° NE 18:26:15 12° SE
FENGYUN 3A 3.8 18:17:03 10° S 18:22:23 78° WSW 18:27:47 10° NNW
YAOGAN 1 3.9 18:19:00 10° S 18:23:06 41° W 18:27:13 10° NNW
Envisat 4.1 18:25:58 24° NE 18:25:58 24° NE 18:29:01 10° N
Cosmos 1151 Rocket 3.6 18:28:07 10° N 18:31:33 37° NE 18:31:33 37° NE
Tiangong 1 1.8 18:30:11 10° W 18:32:12 35° SSW 18:32:12 35° SSW
COSMOS 2406 3.8 18:27:45 10° S 18:32:55 36° ESE 18:33:47 34° E
H-2A R/B 2.6 18:30:18 10° SSE 18:34:04 73° ENE 18:37:55 10° N
ATLAS 5 CENTAUR R/B 4.3 18:32:32 10° NNW 18:34:11 11° N 18:35:50 10° NNE
Cosmos 44 Rocket 3.3 18:31:59 10° SSW 18:36:31 53° ESE 18:37:32 44° ENE
FengYun 1-2 T 4.1 18:31:20 10° SSE 18:36:56 72° ENE 18:42:32 10° N
PKM 3.4 18:34:59 10° NW 18:37:41 70° NE 18:37:56 65° ENE
Thor Agena Rocket 3.9 18:39:09 39° E 18:39:35 40° E 18:44:28 10° SSE
BREEZE-M DEB 4.5 18:37:15 10° WNW 18:40:31 77° NNE 18:40:59 65° E
Cosmos 1455 3.9 18:44:31 10° N 18:45:54 21° N 18:45:54 21° N
Cosmos 909 Rocket 4.1 18:44:32 10° NNW 18:51:32 65° NE 18:54:14 36° ESE
Cosmos 1515 Rocket 3.3 18:50:39 10° N 18:55:02 77° E 18:55:37 64° SE
Cosmos 1408 Rocket 4.3 18:53:49 10° SSW 18:58:01 52° WNW 19:01:55 12° N
Cosmos 332 Rocket 4.4 18:53:25 10° S 18:56:55 40° SSE 18:56:55 40° SSE
EO 1 Del DPAF 4.4 18:55:21 15° N 18:58:11 41° WNW 19:01:47 10° SW
COSMO-SKYMED 1 4.5 18:56:52 10° N 19:00:37 29° WNW 19:04:22 10° SW
ALOS 4.3 18:58:21 10° SSW 19:02:23 29° W 19:06:27 10° NW
Cosmos 2058 3.3 19:00:17 10° S 19:03:30 53° S 19:03:30 53° S
USA 215 4.2 19:05:05 30° NNE 19:06:34 33° N 19:12:15 10° NW
Cosmos 2228 Rocket 3.3 19:03:29 10° NNW 19:08:04 73° W 19:12:37 10° S
USA 81 3.9 19:07:12 10° S 19:12:29 89° W 19:15:12 30° N
Cosmos 2151 3.7 19:08:30 10° S 19:11:34 47° SSW 19:11:34 47° SSW
Cosmos 1703 3.9 19:09:29 10° SSW 19:13:13 55° W 19:13:13 55° W
Cosmos 1626 4.1 19:16:36 10° SW 19:19:50 28° WNW 19:21:05 23° NW
Cosmos 1743 Rocket 4.2 19:19:51 10° SSW 19:23:42 53° WSW 19:23:42 53° WSW
GEOS 3 Rocket 4.2 19:23:24 34° S 19:25:30 56° WSW 19:30:48 10° NW
Meteor 2-15 4.3 19:20:11 10° S 19:26:19 89° WNW 19:28:40 41° N
Cosmos 1821 Rocket 4.2 19:31:39 10° NNW 19:37:46 69° W 19:43:54 10° S
Cosmos 1535 Rocket 4.4 19:32:01 10° N 19:38:12 79° W 19:39:22 60° SSW
